TECHSAT 1B (GO-32)

Last updated on Sun Jun 21 2026 00:02:51 GMT+0000 (Coordinated Universal Time)

1 25397U 98043D 26171.43605319 .00000032 00000+0 33890-4 0 9999 2 25397 99.0068 164.2767 0001219 156.5266 203.5967 14.24428915451795
UTC large
Height (km)
Speed (km/s)
/
Latitude / Longitude
Inclination (degrees)
Orbital Period (minutes)
Azimuth
Elevation
Range (km)
Doppler Factor

Next 0 passes for location: London (51.5072 / 0.1276)

No passes found over London.
TECHSAT 1B (GO-32)